FLOCK 4Q 20

导读

FLOCK 4Q 20卫星是美国于2023年11月11日8时发射的遥感卫星,隶属于行星实验室FLOCK 4Q卫星星座。作为低轨对地观测小卫星,它凭借高分辨率光学成像能力,可为农业监测、城市规划、灾害评估、地理测绘等领域提供持续的地球观测数据,服务全球商业、科研及环境监测等多元应用场景,进一步补充了星座的全球对地观测覆盖能力,推动高分辨率遥感数据的普及应用。

Basic Information
目录编号:
58313
目录名称:
FLOCK 4Q 20
国际标识:
2023-174BK
轨道中心:
EARTH
卫星名称:
FLOCK 4Q 20
卫星全名:
--
卫星状态:
在轨 (已飞行943 天)
发射日期:
2023-11-11 UTC
国别 :
美国 (US)
星等 :
--
Orbit Information
数据来源 国际轨道数据
星历时间: 2026-05-30T08:35:16+0800
轨道信息已过期12天
半长轴: 6588.432km
偏心率: 0.0013209
轨道倾角: 97.361°
近地点辐角 243.794°
升交点赤经 247.848°
平近点角 116.200°
近地点: 201.592km
远地点: 218.998km
周期: 88.702分钟
每日圈数: 16.234154
Detailed Information
使用方式:
暂无
2D Orbit Map
3D Orbit Map
Orbit Altitude Analysis Chart
Orbit Inclination Analysis Chart
Orbit Comprehensive Analysis Chart
View Comprehensive Chart